EW4543 Weather Reports


Display with metric or nautical units.
time (UTC)temp
F
wind
direction
speed
MPH
gust
MPH
rain 1hr
in
rain 24hr
in
rain mn
in
humidity
%
barometer
mb
20260502223038 70 282 0.0 1.0 0.00 0.04 0.04 59 1006.6
20260502221537 71 236 0.0 1.0 0.00 0.04 0.04 59 1006.8
20260502220042 70 187 0.0 1.0 0.00 0.04 0.04 61 1007.1
20260502214538 69 293 0.0 3.0 0.00 0.04 0.04 63 1007.2
20260502213036 69 307 0.0 3.0 0.00 0.04 0.04 65 1007.2
20260502211544 68 339 1.0 5.0 0.00 0.04 0.04 66 1007.4
20260502210034 69 276 0.0 2.0 0.00 0.04 0.04 64 1007.3
20260502204534 70 265 0.0 2.0 0.00 0.04 0.04 62 1007.4
20260502203033 71 255 0.0 2.0 0.00 0.04 0.04 62 1007.5
20260502201536 72 203 1.0 3.0 0.00 0.04 0.04 59 1007.5
20260502200033 73 248 0.0 3.0 0.00 0.04 0.04 59 1007.5
20260502194533 73 304 0.0 3.0 0.00 0.04 0.04 58 1007.7
20260502193034 73 290 1.0 3.0 0.00 0.04 0.04 60 1007.7
20260502191530 73 205 0.0 2.0 0.00 0.04 0.04 59 1007.8
20260502190032 73 267 1.0 3.0 0.00 0.04 0.04 58 1007.8
20260502184531 72 240 0.0 2.0 0.00 0.04 0.04 60 1007.8
20260502183025 71 116 0.0 3.0 0.00 0.04 0.04 55 1007.8
20260502181523 71 234 0.0 2.0 0.00 0.04 0.04 55 1007.8
20260502163117 68 157 0.0 1.0 0.01 0.08 0.03 61 1007.7
20260502161535 66 168 0.0 0.0 0.01 0.08 0.03 67 1007.7
20260502160123 65 217 0.0 1.0 0.01 0.08 0.03 73 1007.7
20260502151612 57 217 0.0 0.0 0.00 0.10 0.02 89 1007.7
20260502123105 50 217 0.0 0.0 0.00 0.13 0.01 93 1006.9
20260502121609 50 217 0.0 0.0 0.00 0.13 0.01 93 1006.9
20260502114555 51 217 0.0 0.0 0.00 0.17 0.01 93 1007.0
20260502113055 51 217 0.0 0.0 0.00 0.17 0.01 93 1007.0
20260502111558 51 217 0.0 0.0 0.00 0.17 0.01 94 1007.1
20260502110052 51 217 0.0 0.0 0.00 0.17 0.01 94 1007.3
20260502104548 51 217 0.0 0.0 0.00 0.17 0.01 94 1007.3
20260502103053 52 217 0.0 0.0 0.00 0.17 0.01 94 1007.4
20260502101605 51 217 0.0 0.0 0.01 0.17 0.01 93 1007.4
20260502071519 55 217 0.0 0.0 0.00 0.24 0.00 90 1008.5
20260502070022 56 217 0.0 0.0 0.00 0.24 0.00 90 1008.5
20260502064527 56 217 0.0 0.0 0.00 0.24 0.24 89 1008.5
20260502063017 57 217 0.0 0.0 0.00 0.24 0.24 88 1008.4
20260502061517 57 217 0.0 0.0 0.00 0.24 0.24 88 1008.6
20260502060015 58 217 0.0 0.0 0.00 0.24 0.24 88 1008.7
20260502054514 58 217 0.0 0.0 0.00 0.26 0.24 87 1008.6
20260502053014 58 217 0.0 0.0 0.00 0.26 0.24 87 1008.5
20260502051515 59 216 0.0 0.0 0.00 0.26 0.24 86 1008.6
20260502050013 59 216 0.0 0.0 0.00 0.26 0.24 85 1008.6
20260502044512 60 216 0.0 0.0 0.00 0.26 0.24 84 1008.5
20260502043017 60 216 0.0 1.0 0.00 0.26 0.24 83 1008.5
20260502041513 61 216 0.0 0.0 0.00 0.26 0.24 81 1008.3
20260502040015 62 216 0.0 0.0 0.00 0.26 0.24 79 1008.1
20260502034514 63 216 0.0 0.0 0.00 0.26 0.24 77 1007.9
20260502033011 64 216 0.0 0.0 0.00 0.26 0.24 75 1007.6
20260502031511 65 216 0.0 0.0 0.00 0.26 0.24 72 1007.3
20260502030010 67 216 0.0 0.0 0.00 0.26 0.24 69 1007.2
20260502024524 69 216 0.0 0.0 0.00 0.26 0.24 66 1007.1
20260502023024 72 216 0.0 0.0 0.00 0.26 0.24 60 1007.1
20260502021523 73 216 0.0 1.0 0.00 0.26 0.24 56 1007.1
20260502020023 75 216 0.0 1.0 0.00 0.26 0.24 53 1007.2
20260502014523 77 289 0.0 1.0 0.00 0.26 0.24 48 1007.3
20260502013020 76 202 0.0 1.0 0.00 0.26 0.24 47 1007.3
20260502011540 75 236 0.0 1.0 0.00 0.26 0.24 48 1007.3
20260502010022 75 236 0.0 1.0 0.00 0.26 0.24 48 1007.4
20260502004517 75 169 0.0 1.0 0.00 0.26 0.24 44 1007.5
20260502003023 75 227 0.0 2.0 0.00 0.26 0.24 46 1007.6
20260502001516 76 296 0.0 1.0 0.00 0.26 0.24 47 1007.6
20260502000012 76 196 1.0 3.0 0.00 0.26 0.24 45 1007.7
20260501234510 76 124 1.0 2.0 0.00 0.26 0.24 44 1007.8
20260501233009 76 279 1.0 3.0 0.00 0.26 0.24 44 1008.0
20260501231513 76 240 0.0 2.0 0.00 0.26 0.24 43 1008.1
20260501230004 76 33 1.0 3.0 0.00 0.26 0.24 46 1008.3
20260501224502 76 286 0.0 4.0 0.00 0.26 0.24 43 1008.3